STARLINK-2032, 47649

Orbit data source: Space-Track

STARLINK-2032, 47649 is a payload satellite owned by SpaceX/Seattle (US) in LEO that was launched on Tue, 16 Feb 2021 UTC via an FALCON 9 launch vehicle from the Air Force Eastern Test Range (AFETR). Payload-class satellites include a variety of spacecraft equipped with specific instruments for various scientific and technological missions. These include communications satellites like Starlink; space stations such as the ISS; scientific satellites like the Hubble; Earth observation satellites from companies like Planet Labs, Umbra, and HawkEye 360; GPS; miniature CubeSats for education and research; and military/defense satellites.

Not visible in the next 10 days
Identifier
47649, 2021-012AF
Orbit
LEO
Country
Flag of USUS
Related business
Manufacturer
SpaceX/Seattle
Mission
Partially operational Commercial Communications
Bus & Motor
STARLINK, Unknown motor
Mass
260 kg wet, ~248 kg dry
Launch date (UTC)
2021-02-16 (5 years ago)
Launch vehicle
FALCON 9
Launch site
Air Force Eastern Test Range (AFETR)
Object type
Payload
Rocket body
Debris
Shape & HBR
Box + 1 Pan, 10.1 m
Radar Cross Section
13.562 m², Large (>1 m²)

Expand to show TLE details & history
Last TLE update: 2 days ago

TLE from 2 days ago
0 STARLINK-2032
1 47649U 21012AF  26171.41668980  .00232688  31518-4  67074-3 0  9993
2 47649  53.0293 220.8402 0010866  24.4797 191.8354 15.92557404  5880
Epoch: 2026-06-20T10:00Z
TLE epoch observation values (Epoch: 2026-06-20T10:00:01.998Z)
Latitude
-28.42918°
Longitude
6.10432°
Altitude
310.757 km
Speed
7.717 km/s
True Right ascension
04h 18m 58s
True Declination
-28° 16' 33"
Sunlit
Object was in daylight at epoch
Visualization orbit readout
Latitude
Unknown
Longitude
Unknown
Altitude
Unknown
Speed
Unknown
Apparent Right ascension
Unknown
Apparent Declination
Unknown
Sunlit
N/A
Visualization observer readout
Local Sidereal Time
21:39:52
Azimuth
Unknown
Elevation
Unknown
Doppler factor
Unknown
Orbital elements
Apogee altitude
302.665 km
Perigee altitude
288.162 km
Semi-major axis
6,673.551 km
Eccentricity
0.00109
Inclination
53.0293°
RAAN
220.8402°
Arg. of periapsis
24.4797°
True anomaly
191.8099°
Mean anomaly
191.8354°
Eccentric anomaly
191.82264°
Mean motion
3.98114 °/min
Orbital period
90.43 mins
BSTAR
0.00067074
Loading maneuver chart data...
Computing Atmospheric mass density...

Documentation

Showing up to 5 results
|